Current Weather Conditions: station 46085

sailwx.info

Wind from 010 at 7 knots gusting 13

Air temperature 3.5° C
Dewpoint 3.4° C
Water temperature 6.1° C

Last reported at 2020-Jan-22 12:30 UTC.
Time now 2020-Jan-22 13:26 UTC

Location: N 55°54' W 142°54'.
View on Google Maps.

See reports from other nearby stations

  
Tides and Currents Weather Stations Pressure Air Temp Water Temp Dewpoint Dewpoint Depression Visibility Wind Speed Wind Dir Waves Ship Positions
date/time (UTC)wind fromknots sea level pressurealtimeterstation pressurevisibilityair tempwater tempwave heightnotes
2020-Jan-22 12:30 010 7 gusting 13 3.5 6.1
2020-Jan-22 12:20 360 9 gusting 13 3.6 6.1
2020-Jan-22 12:10 010 9 gusting 11 3.8 6.1
2020-Jan-22 12:00 360 7 gusting 9 3.7 6.1
2020-Jan-22 11:50 360 7 gusting 11 3.7 6.1 2.1
2020-Jan-22 11:40 360 9 gusting 13 3.7 6.1
2020-Jan-22 11:30 360 9 gusting 13 3.6 6.1
2020-Jan-22 11:20 350 9 gusting 13 3.6 6.1
2020-Jan-22 11:10 350 7 gusting 13 3.6 6.1
2020-Jan-22 11:00 340 9 gusting 13 3.7
2020-Jan-22 10:50 360 7 gusting 11 3.8 6.1 2.2
2020-Jan-22 10:40 010 7 gusting 11 3.7 6.1
2020-Jan-22 10:30 360 7 gusting 11 3.8 6.1
2020-Jan-22 10:20 350 7 gusting 11 3.8 6.2
2020-Jan-22 10:10 350 7 gusting 13 3.8 6.2
2020-Jan-22 10:00 360 7 gusting 11 3.8
2020-Jan-22 09:50 350 7 gusting 11 3.7 6.2 2.1
2020-Jan-22 09:40 340 9 gusting 13 3.8 6.2
2020-Jan-22 09:30 350 9 gusting 11 4.0 6.2
2020-Jan-22 09:20 340 7 gusting 11 4.0 6.2
2020-Jan-22 09:10 350 7 gusting 13 4.0 6.3
2020-Jan-22 09:00 350 9 gusting 13 4.0
2020-Jan-22 08:50 340 7 gusting 11 4.0 6.3 2.1
2020-Jan-22 08:40 340 7 gusting 11 3.9 6.2
2020-Jan-22 08:30 350 9 gusting 13 3.8 6.2
2020-Jan-22 08:20 340 9 gusting 13 3.9 6.2
2020-Jan-22 08:10 340 7 gusting 13 3.9 6.0
2020-Jan-22 08:00 350 9 gusting 13 3.9
2020-Jan-22 07:50 340 9 gusting 11 3.9 6.0 2.1
2020-Jan-22 07:40 350 7 gusting 13 4.0 6.0
2020-Jan-22 07:30 340 7 gusting 13 4.0 6.0
2020-Jan-22 07:20 330 7 gusting 11 3.9 5.9
2020-Jan-22 07:10 340 7 gusting 11 4.0
2020-Jan-22 07:00 330 7 gusting 15 3.9
2020-Jan-22 06:50 330 7 gusting 13 3.9 6.0 2.1
2020-Jan-22 06:40 350 9 gusting 13 4.1 6.0
2020-Jan-22 06:30 360 9 gusting 13 4.0 6.0
2020-Jan-22 06:20 350 9 gusting 13 4.0 6.0
2020-Jan-22 06:10 340 7 gusting 11 3.9 6.0
2020-Jan-22 06:00 350 7 gusting 13 3.7
2020-Jan-22 05:50 350 7 gusting 13 3.8 6.0 2.1
2020-Jan-22 05:40 350 7 gusting 13 3.6 6.0
2020-Jan-22 05:30 350 7 gusting 11 3.6 6.0
2020-Jan-22 05:20 360 7 gusting 13 3.5 6.0
2020-Jan-22 05:10 360 9 gusting 13 3.5 6.0
2020-Jan-22 05:00 350 7 gusting 11 3.4
2020-Jan-22 04:50 350 7 gusting 11 3.4 6.0 1.8
2020-Jan-22 04:40 350 9 gusting 13 3.4 6.0
2020-Jan-22 04:30 350 9 gusting 13 3.6 6.0
2020-Jan-22 04:20 350 9 gusting 13 3.6 6.0
2020-Jan-22 04:10 340 7 gusting 13 3.5 6.0
2020-Jan-22 04:00 350 9 gusting 13 3.4
2020-Jan-22 03:50 350 9 gusting 13 3.4 6.0 2.0
2020-Jan-22 03:40 360 9 gusting 13 3.4 6.0
2020-Jan-22 03:30 360 9 gusting 13 3.5 6.0
2020-Jan-22 03:20 340 9 gusting 13 3.4 6.0
2020-Jan-22 03:10 360 9 gusting 13 3.4 6.0
2020-Jan-22 03:00 350 11 gusting 15 3.3 6.0
2020-Jan-22 02:50 340 11 gusting 13 3.3 6.0 1.8
2020-Jan-22 02:40 330 9 gusting 13 3.3 6.0
2020-Jan-22 02:30 340 9 gusting 13 3.4 6.0
2020-Jan-22 02:20 340 9 gusting 13 3.2 6.0
2020-Jan-22 02:10 340 9 gusting 13 3.3 6.0
2020-Jan-22 02:00 330 9 gusting 13 3.3
2020-Jan-22 01:50 330 9 gusting 13 3.4 6.0 1.9
2020-Jan-22 01:40 330 9 gusting 13 3.4 6.0
2020-Jan-22 01:30 320 9 gusting 11 3.5
2020-Jan-22 01:20 330 7 gusting 9 3.5 6.0
2020-Jan-22 01:10 330 7 gusting 11 3.4 6.0
2020-Jan-22 01:00 330 7 gusting 9 3.4 6.0
2020-Jan-22 00:50 320 7 gusting 11 3.5 5.9 1.9
2020-Jan-22 00:40 330 5 gusting 9 3.6 5.9
2020-Jan-22 00:30 330 5 gusting 9 3.5 5.9
2020-Jan-22 00:20 320 5 gusting 9 3.4 5.9
2020-Jan-22 00:10 320 5 gusting 9 3.4
2020-Jan-22 00:00 330 3 gusting 7 3.5
2020-Jan-21 23:50 330 5 gusting 7 3.4 5.9 1.9
2020-Jan-21 23:40 320 5 gusting 7 3.5 5.9
2020-Jan-21 23:30 330 5 gusting 7 3.5 5.9
2020-Jan-21 23:20 320 3 gusting 9 3.5 5.9
2020-Jan-21 23:10 320 5 gusting 9 3.5 6.0
2020-Jan-21 23:00 330 3 gusting 7 3.5
2020-Jan-21 22:50 320 3 gusting 7 3.6 6.0 1.8
2020-Jan-21 22:40 320 5 gusting 7 3.5
2020-Jan-21 22:30 300 3 gusting 7 3.6 6.0
2020-Jan-21 22:20 300 3 gusting 7 3.6 6.0
2020-Jan-21 22:10 290 3 gusting 7 3.9 6.0
2020-Jan-21 22:00 290 3 gusting 5 3.9
2020-Jan-21 21:50 300 3 gusting 7 3.9 6.0 1.9
2020-Jan-21 21:40 300 3 gusting 5 4.0 6.0
2020-Jan-21 21:30 310 3 gusting 7 4.0 6.0
2020-Jan-21 21:20 300 5 gusting 7 4.2 6.0
2020-Jan-21 21:10 300 3 gusting 7 4.3 6.0
2020-Jan-21 21:00 310 3 gusting 7 4.5
2020-Jan-21 20:50 290 3 gusting 5 4.4 6.0 2.1
2020-Jan-21 20:40 280 5 gusting 7 4.5 6.0
2020-Jan-21 20:30 290 3 gusting 7 4.6 6.0
2020-Jan-21 20:20 300 3 gusting 5 4.9 5.9
2020-Jan-21 20:10 310 3 gusting 5 4.9 5.9
2020-Jan-21 20:00 320 3 gusting 5 4.8
2020-Jan-21 19:50 320 3 gusting 5 4.9 6.0 2.0
2020-Jan-21 19:40 310 1 gusting 5 4.9 6.0
2020-Jan-21 19:30 320 1 gusting 3 4.9 6.0
2020-Jan-21 19:20 310 1 gusting 3 4.8 6.0
2020-Jan-21 19:10 330 1 gusting 3 4.6 6.0
2020-Jan-21 19:00 330 1 gusting 5 4.5 6.0
2020-Jan-21 18:50 320 1 gusting 3 4.4 6.0 2.0
2020-Jan-21 18:40 330 1 gusting 5 4.3 6.1
2020-Jan-21 18:30 330 3 gusting 5 4.2 6.0
2020-Jan-21 18:20 340 1 gusting 5 4.1 6.0
2020-Jan-21 18:10 340 1 gusting 5 4.1 6.0
2020-Jan-21 18:00 340 1 gusting 3 4.0
2020-Jan-21 17:50 360 1 gusting 3 4.0 6.0 2.0
2020-Jan-21 17:40 340 3 gusting 5 4.0 6.0
2020-Jan-21 17:30 340 3 gusting 5 4.0 6.0
2020-Jan-21 17:20 320 3 gusting 7 4.0 6.0
2020-Jan-21 17:10 330 3 gusting 5
2020-Jan-21 17:00 320 3 gusting 7 4.0
2020-Jan-21 16:50 320 3 gusting 5 4.0 5.9 2.0
2020-Jan-21 16:40 330 3 gusting 7 4.1 6.0
2020-Jan-21 16:30 340 3 gusting 7 4.1 5.9
2020-Jan-21 16:20 330 3 gusting 5 4.0 5.9
2020-Jan-21 16:10 340 5 gusting 7 4.0 5.9
2020-Jan-21 16:00 360 1 gusting 5 4.0
2020-Jan-21 15:50 4.0 5.9 2.2
2020-Jan-21 15:40 060 1 gusting 5 4.0 5.9
2020-Jan-21 15:30 4.3 5.9
2020-Jan-21 15:20 330 1 gusting 3 4.3 5.9
2020-Jan-21 15:10 340 1 gusting 3 4.4 5.9
2020-Jan-21 15:00 340 1 gusting 5 4.4 5.9
2020-Jan-21 14:50 340 1 gusting 5 4.4 5.9 2.2
2020-Jan-21 14:40 340 1 gusting 3 4.4 5.9
2020-Jan-21 14:30 340 1 gusting 3 4.3 5.9
2020-Jan-21 14:20 350 1 gusting 5 4.4 5.9
2020-Jan-21 14:10 340 1 gusting 5 4.3 6.0
2020-Jan-21 14:00 330 1 gusting 3 4.3 5.9
2020-Jan-21 13:50 4.3 6.0 2.3
2020-Jan-21 13:40 280 1 gusting 3 4.3 6.0
2020-Jan-21 13:30 290 1 gusting 3 4.3 6.0
2020-Jan-21 13:20 290 1 gusting 5 4.3 6.0
2020-Jan-21 13:10 250 1 gusting 5 4.3 6.0
2020-Jan-21 13:00 4.2 6.0
2020-Jan-21 12:50 180 1 gusting 3 4.3 6.0 2.3
2020-Jan-21 12:40 160 3 gusting 5 4.2 6.0
2020-Jan-21 12:30 150 3 gusting 7 4.1 6.0
2020-Jan-21 12:20 160 5 gusting 7 4.1 6.0
2020-Jan-21 12:10 130 3 gusting 9 4.4 6.0
2020-Jan-21 12:00 050 1 gusting 3 4.7 6.0
2020-Jan-21 11:50 4.6 6.0 2.2
2020-Jan-21 11:40 4.6 6.0
2020-Jan-21 11:30 110 1 gusting 5 4.6 6.0
2020-Jan-21 11:20 110 3 gusting 5 4.6 6.0
2020-Jan-21 11:10 120 5 gusting 7 4.6 6.0
2020-Jan-21 11:00 090 3 gusting 7 4.7 6.0
2020-Jan-21 10:50 090 5 gusting 7 4.7 6.0 2.4
2020-Jan-21 10:40 100 3 gusting 9 4.5 6.0
2020-Jan-21 10:30 150 1 gusting 7 4.4 6.0
2020-Jan-21 10:20 020 3 gusting 7 4.5 6.0
2020-Jan-21 10:10 010 3 gusting 7 4.4 6.0
2020-Jan-21 10:00 010 3 gusting 5 4.3 6.0
2020-Jan-21 09:50 020 3 gusting 7 4.3 6.0 2.4
2020-Jan-21 09:40 020 3 gusting 5 4.3 6.0
2020-Jan-21 09:30 030 3 gusting 7 4.2 6.0
2020-Jan-21 09:20 060 3 gusting 7 4.2 6.0
2020-Jan-21 09:10 060 3 gusting 7 4.1 6.0
2020-Jan-21 09:00 070 5 gusting 7 4.1 6.0
2020-Jan-21 08:50 070 5 gusting 9 4.1 6.0 2.3
2020-Jan-21 08:40 060 3 gusting 7 4.0 6.0
2020-Jan-21 08:30 070 5 gusting 7 3.9 6.0
2020-Jan-21 08:20 080 7 gusting 9 4.0 6.0
2020-Jan-21 08:10 080 7 gusting 11 4.2 6.0
2020-Jan-21 08:00 080 9 gusting 11 4.4 6.0
2020-Jan-21 07:50 080 5 gusting 9 4.5 6.0 2.2
2020-Jan-21 07:40 090 5 gusting 7 4.4 6.0
2020-Jan-21 07:30 100 3 gusting 7 4.4 5.9
2020-Jan-21 07:20 4.2 5.9
2020-Jan-21 07:10 4.1 5.9
2020-Jan-21 07:00 070 1 gusting 5 4.1 5.9
2020-Jan-21 06:50 070 1 gusting 5 4.1 5.9 2.3
2020-Jan-21 06:40 050 1 gusting 3 4.0 5.9
2020-Jan-21 06:30 070 3 gusting 5 4.0 5.9
2020-Jan-21 06:20 090 1 gusting 3 3.9 5.9
2020-Jan-21 06:10 070 1 gusting 5 3.8 5.9
2020-Jan-21 06:00 050 1 gusting 3 3.8 6.0
2020-Jan-21 05:50 040 1 gusting 5 3.7 6.0 2.5
2020-Jan-21 05:40 030 3 gusting 7 3.8 5.9
2020-Jan-21 05:30 060 3 gusting 5 3.8 5.9
2020-Jan-21 05:20 050 3 gusting 7 3.8 5.9
2020-Jan-21 05:10 040 5 gusting 7 3.9 5.9
2020-Jan-21 05:00 040 5 gusting 7 3.9 5.9
2020-Jan-21 04:50 050 5 gusting 9 4.0 5.9 2.5
2020-Jan-21 04:40 050 3 gusting 9 4.0 5.9
2020-Jan-21 04:30 030 1 gusting 3 3.8 5.9
2020-Jan-21 04:20 030 1 gusting 3 3.8 5.9
2020-Jan-21 04:10 060 3 gusting 7 3.9 5.9
2020-Jan-21 04:00 080 5 gusting 11 4.0 5.9
2020-Jan-21 03:50 080 1 gusting 5 4.0 5.9 2.7
2020-Jan-21 03:40 090 1 gusting 5 3.9 5.9
2020-Jan-21 03:30 080 3 gusting 5 3.8 5.9
2020-Jan-21 03:20 060 3 gusting 7 3.9 5.9
2020-Jan-21 03:10 040 1 gusting 5 3.8 5.9
2020-Jan-21 03:00 3.7 6.0
2020-Jan-21 02:50 120 1 gusting 7 3.8 6.0 2.7
2020-Jan-21 02:40 070 1 gusting 5 3.9 6.0
2020-Jan-21 02:30 160 1 gusting 3 3.8 6.0
2020-Jan-21 02:20 160 3 gusting 5 3.8 6.0
2020-Jan-21 02:10 140 3 gusting 5 3.9 6.0
2020-Jan-21 02:00 140 3 gusting 7 3.8 6.0
2020-Jan-21 01:50 080 3 gusting 7 3.8 6.0 2.5
2020-Jan-21 01:40 110 3 gusting 7 3.9 6.0
2020-Jan-21 01:30 110 1 gusting 5 4.0 6.0
2020-Jan-21 01:20 100 1 gusting 5 3.9 6.0
2020-Jan-21 01:10 140 1 gusting 5 4.0 6.0
2020-Jan-21 01:00 100 1 gusting 5 4.0 6.0
2020-Jan-21 00:50 090 1 gusting 9 4.0 6.0 3.0
2020-Jan-21 00:40 100 3 gusting 9 4.1 6.0
2020-Jan-21 00:30 100 1 gusting 5 4.1 6.0
2020-Jan-21 00:20 100 1 gusting 5 4.2 6.0
2020-Jan-21 00:10 120 1 gusting 3 4.1 6.0
2020-Jan-21 00:00 110 3 gusting 5 4.0 6.0
2020-Jan-20 23:50 110 3 gusting 5 4.0 6.0 2.9
2020-Jan-20 23:40 110 3 gusting 7 4.0 6.0
2020-Jan-20 23:30 120 3 gusting 7 4.2 6.0
2020-Jan-20 23:20 130 1 gusting 5 4.1 6.0
2020-Jan-20 23:10 120 1 gusting 5 4.1 6.0
2020-Jan-20 23:00 120 3 gusting 5 4.2 6.0
2020-Jan-20 22:50 140 3 gusting 5 4.4 6.0 2.9
2020-Jan-20 22:40 180 3 gusting 5 4.4 6.0
2020-Jan-20 22:30 190 3 gusting 5 4.4 6.0
2020-Jan-20 22:20 190 3 gusting 5 4.4 6.0
2020-Jan-20 22:10 180 3 gusting 5 4.6 6.0
2020-Jan-20 22:00 170 1 gusting 5 4.6 6.0
2020-Jan-20 21:50 4.1 6.0 3.0
2020-Jan-20 21:40 190 3 gusting 7 3.9 6.0
2020-Jan-20 21:30 170 1 gusting 7 4.0 6.0
2020-Jan-20 21:20 190 1 gusting 5 3.9 6.0
2020-Jan-20 21:10 190 5 gusting 9 3.8 6.0
2020-Jan-20 21:00 180 3 gusting 7 3.8 6.0
2020-Jan-20 20:50 190 3 gusting 7 3.8 6.0 2.7
2020-Jan-20 20:40 200 5 gusting 7 3.9 6.0
2020-Jan-20 20:30 190 5 gusting 7 4.0 6.0
2020-Jan-20 20:20 170 5 gusting 9 4.2 6.0
2020-Jan-20 20:10 210 3 gusting 5 4.4 6.0
2020-Jan-20 20:00 200 3 gusting 7 4.3 6.0
2020-Jan-20 19:50 200 3 gusting 7 4.3 6.0 3.1
2020-Jan-20 19:40 200 5 gusting 9 4.3 6.1
2020-Jan-20 19:30 210 5 gusting 9 4.3 6.0
2020-Jan-20 19:20 230 3 gusting 9 4.3 6.0
2020-Jan-20 19:10 240 3 gusting 7 4.2 6.1
2020-Jan-20 19:00 240 3 gusting 5 4.2 6.1
2020-Jan-20 18:50 240 3 gusting 7 4.1 6.1 2.9
2020-Jan-20 18:40 260 3 gusting 7 4.1 6.1
2020-Jan-20 18:30 270 3 gusting 5 4.1 6.1
2020-Jan-20 18:20 290 3 gusting 5 4.0 6.2
2020-Jan-20 18:10 270 3 gusting 7 4.0 6.2
2020-Jan-20 18:00 270 3 gusting 7 3.9 6.1
2020-Jan-20 17:50 270 5 gusting 9 3.9 6.1 3.0
2020-Jan-20 17:40 280 7 gusting 11 3.9 6.2
2020-Jan-20 17:30 290 7 gusting 13 4.0 6.2
2020-Jan-20 17:20 300 5 gusting 9 4.1 6.2
2020-Jan-20 17:10 290 5 gusting 11 4.1 6.2
2020-Jan-20 17:00 290 7 gusting 9 4.2 6.2
2020-Jan-20 16:50 290 7 gusting 11 4.2 6.2 3.2
2020-Jan-20 16:40 280 5 gusting 11 4.3 6.2
2020-Jan-20 16:30 280 7 gusting 11 4.2 6.2
2020-Jan-20 16:20 270 7 gusting 11 4.2 6.2
2020-Jan-20 16:10 280 5 gusting 9 4.2 6.2
2020-Jan-20 16:00 290 5 gusting 11 4.2 6.2
2020-Jan-20 15:50 280 5 gusting 9 4.2 6.2 3.3
2020-Jan-20 15:40 280 5 gusting 9 4.1 6.2
2020-Jan-20 15:30 270 7 gusting 11 4.1 6.2
2020-Jan-20 15:20 280 9 gusting 13 4.0 6.2
2020-Jan-20 15:10 280 9 gusting 15 4.0 6.2
2020-Jan-20 15:00 280 7 gusting 13 4.1 6.2
2020-Jan-20 14:50 270 5 gusting 7 4.0 6.3 3.4
2020-Jan-20 14:40 270 5 gusting 9 3.9 6.3
2020-Jan-20 14:30 270 7 gusting 9 3.8 6.3
2020-Jan-20 14:20 270 7 gusting 11 3.7 6.3
2020-Jan-20 14:10 270 9 gusting 15 3.4 6.3
2020-Jan-20 14:00 270 9 gusting 15 3.9 6.3
2020-Jan-20 13:50 270 5 gusting 13 4.0 6.3 3.1
2020-Jan-20 13:40 250 5 gusting 9 4.0 6.3
2020-Jan-20 13:30 260 5 gusting 11 3.9 6.3
2020-Jan-20 13:20 280 11 gusting 15 4.0 6.3
2020-Jan-20 13:10 270 7 gusting 13 4.2 6.3
2020-Jan-20 13:00 270 7 gusting 13 4.2 6.3